EW4881 Weather Reports


time (UTC)temp
C
wind
direction
speed
KPH
gust
KPH
rain 1hr
cm
rain 24hr
cm
rain mn
cm
humidity
%
barometer
mb
20260503200353 16 265 8.0 19.3 0.00 0.00 0.00 34 979.5
20260503200251 16 257 8.0 19.3 0.00 0.00 0.00 33 979.5
20260503200149 16 258 8.0 19.3 0.00 0.00 0.00 33 979.3
20260503200142 16 273 8.0 17.7 0.00 0.00 0.00 33 979.3
20260503200050 16 240 8.0 17.7 0.00 0.00 0.00 33 979.4
20260503195949 16 313 8.0 17.7 0.00 0.00 0.00 33 979.5
20260503195851 16 343 8.0 17.7 0.00 0.00 0.00 33 979.4
20260503195750 16 332 6.4 17.7 0.00 0.00 0.00 34 979.4
20260503195651 16 302 8.0 16.1 0.00 0.00 0.00 34 979.5
20260503195643 16 302 8.0 16.1 0.00 0.00 0.00 34 979.5
20260503195546 16 209 8.0 24.1 0.00 0.00 0.00 34 979.5
20260503195445 16 279 8.0 24.1 0.00 0.00 0.00 34 979.5
20260503195344 16 240 8.0 24.1 0.00 0.00 0.00 35 979.5
20260503195245 16 269 8.0 24.1 0.00 0.00 0.00 34 979.6
20260503195142 16 257 8.0 24.1 0.00 0.00 0.00 34 979.6
20260503195037 16 296 8.0 24.1 0.00 0.00 0.00 34 979.6
20260503194936 16 199 8.0 24.1 0.00 0.00 0.00 34 979.7
20260503194837 16 244 8.0 24.1 0.00 0.00 0.00 34 979.7
20260503194736 16 195 8.0 24.1 0.00 0.00 0.00 33 979.5
20260503194636 16 201 8.0 24.1 0.00 0.00 0.00 33 979.7
20260503194531 16 325 8.0 24.1 0.00 0.00 0.00 33 979.7
20260503194431 16 195 8.0 24.1 0.00 0.00 0.00 34 979.8
20260503194330 16 207 8.0 24.1 0.00 0.00 0.00 34 979.8
20260503194230 16 206 9.7 24.1 0.00 0.00 0.00 34 979.8
20260503194130 16 209 9.7 24.1 0.00 0.00 0.00 34 979.8
20260503194024 16 286 9.7 24.1 0.00 0.00 0.00 34 979.8
20260503193924 16 276 9.7 24.1 0.00 0.00 0.00 32 979.8
20260503193825 16 289 9.7 24.1 0.00 0.00 0.00 32 979.8
20260503193725 16 274 8.0 24.1 0.00 0.00 0.00 31 979.9
20260503193624 17 328 8.0 24.1 0.00 0.00 0.00 30 979.8
20260503193521 17 324 8.0 20.9 0.00 0.00 0.00 30 979.9
20260503193417 17 325 6.4 20.9 0.00 0.00 0.00 30 979.9
20260503193317 17 336 8.0 20.9 0.00 0.00 0.00 30 979.9
20260503193220 17 331 6.4 20.9 0.00 0.00 0.00 30 979.9
20260503193118 17 275 8.0 20.9 0.00 0.00 0.00 30 979.9
20260503193012 17 209 8.0 32.2 0.00 0.00 0.00 31 979.9
20260503192914 17 289 8.0 32.2 0.00 0.00 0.00 32 979.9
20260503192812 16 277 8.0 32.2 0.00 0.00 0.00 32 979.9
20260503192713 16 273 8.0 32.2 0.00 0.00 0.00 32 979.9
20260503192613 16 331 8.0 32.2 0.00 0.00 0.00 32 979.9
20260503192509 16 259 8.0 32.2 0.00 0.00 0.00 32 979.9
20260503192405 16 311 8.0 32.2 0.00 0.00 0.00 32 980.0
20260503192306 16 254 8.0 32.2 0.00 0.00 0.00 32 980.1
20260503192207 16 292 8.0 32.2 0.00 0.00 0.00 33 980.1
20260503192105 16 257 8.0 32.2 0.00 0.00 0.00 33 980.2
20260503192000 16 306 8.0 20.9 0.00 0.00 0.00 34 980.0
20260503191859 16 204 9.7 22.5 0.00 0.00 0.00 34 980.1
20260503191800 16 270 9.7 22.5 0.00 0.00 0.00 33 980.1
20260503191701 16 194 9.7 22.5 0.00 0.00 0.00 34 980.1
20260503191600 16 336 9.7 22.5 0.00 0.00 0.00 33 980.1
20260503191455 16 268 9.7 22.5 0.00 0.00 0.00 33 980.1
20260503191353 16 306 9.7 22.5 0.00 0.00 0.00 34 980.2
20260503191254 16 299 8.0 22.5 0.00 0.00 0.00 34 980.2
20260503191154 16 256 8.0 22.5 0.00 0.00 0.00 34 980.3
20260503191053 16 259 8.0 22.5 0.00 0.00 0.00 34 980.3
20260503190949 16 302 6.4 22.5 0.00 0.00 0.00 34 980.3
20260503190847 15 329 6.4 20.9 0.00 0.00 0.00 37 980.3
20260503190747 15 228 6.4 20.9 0.00 0.00 0.00 35 980.2
20260503190648 15 36 6.4 20.9 0.00 0.00 0.00 35 980.2
20260503190547 15 265 6.4 20.9 0.00 0.00 0.00 35 980.2
20260503190441 15 281 6.4 20.9 0.00 0.00 0.00 35 980.3
20260503190341 15 200 6.4 20.9 0.00 0.00 0.00 36 980.2
20260503190243 15 211 6.4 20.9 0.00 0.00 0.00 36 980.2
20260503190141 15 252 6.4 20.9 0.00 0.00 0.00 37 980.3
20260503190042 15 332 8.0 20.9 0.00 0.00 0.00 37 980.3
20260503185937 15 312 8.0 20.9 0.00 0.00 0.00 36 980.3
20260503185835 15 257 8.0 20.9 0.00 0.00 0.00 36 980.3
20260503185735 15 300 8.0 20.9 0.00 0.00 0.00 36 980.3
20260503185637 15 231 8.0 20.9 0.00 0.00 0.00 35 980.4
20260503185535 15 253 8.0 20.9 0.00 0.00 0.00 35 980.4
20260503185434 15 262 8.0 20.9 0.00 0.00 0.00 35 980.4
20260503185333 15 312 8.0 20.9 0.00 0.00 0.00 35 980.4
20260503185234 15 274 8.0 24.1 0.00 0.00 0.00 34 980.3
20260503185133 15 315 8.0 24.1 0.00 0.00 0.00 37 980.4
20260503185030 15 283 8.0 24.1 0.00 0.00 0.00 37 980.4
20260503184931 15 244 8.0 24.1 0.00 0.00 0.00 36 980.5
20260503184828 15 304 9.7 24.1 0.00 0.00 0.00 37 980.4
20260503184727 15 317 9.7 24.1 0.00 0.00 0.00 36 980.5
20260503184625 15 296 9.7 24.1 0.00 0.00 0.00 36 980.5
20260503184523 15 355 9.7 24.1 0.00 0.00 0.00 35 980.5
20260503184418 15 294 9.7 24.1 0.00 0.00 0.00 35 980.6
20260503184319 15 240 8.0 24.1 0.00 0.00 0.00 35 980.5
20260503184238 15 267 8.0 19.3 0.00 0.00 0.00 34 980.5
20260503184218 15 340 8.0 19.3 0.00 0.00 0.00 36 980.5
20260503184137 15 314 8.0 19.3 0.00 0.00 0.00 36 980.5
20260503184122 15 267 8.0 19.3 0.00 0.00 0.00 34 980.5
20260503183914 16 268 6.4 19.3 0.00 0.00 0.00 34 980.5
20260503183811 16 251 6.4 17.7 0.00 0.00 0.00 35 980.5
20260503183713 16 278 6.4 17.7 0.00 0.00 0.00 35 980.5
20260503183613 16 280 6.4 17.7 0.00 0.00 0.00 35 980.6
20260503183513 16 234 6.4 17.7 0.00 0.00 0.00 35 980.6
20260503183310 16 314 6.4 22.5 0.00 0.00 0.00 35 980.6
20260503183225 16 263 8.0 24.1 0.00 0.00 0.00 34 980.6
20260503183210 16 307 8.0 24.1 0.00 0.00 0.00 34 980.6
20260503183125 16 289 8.0 24.1 0.00 0.00 0.00 34 980.6
20260503183110 16 263 8.0 24.1 0.00 0.00 0.00 34 980.6
20260503182901 16 185 6.4 24.1 0.00 0.00 0.00 35 980.6
20260503182800 16 273 8.0 24.1 0.00 0.00 0.00 35 980.6
20260503182700 16 304 8.0 24.1 0.00 0.00 0.00 35 980.5
20260503182559 16 286 8.0 24.1 0.00 0.00 0.00 34 980.6
20260503182501 16 237 8.0 24.1 0.00 0.00 0.00 34 980.6
20260503182355 16 333 8.0 24.1 0.00 0.00 0.00 34 980.6
20260503182255 16 297 6.4 24.1 0.00 0.00 0.00 35 980.7
20260503182154 16 294 6.4 17.7 0.00 0.00 0.00 35 980.6
20260503182054 16 194 6.4 17.7 0.00 0.00 0.00 34 980.7
20260503181954 16 324 6.4 17.7 0.00 0.00 0.00 34 980.7
20260503181850 16 305 6.4 17.7 0.00 0.00 0.00 34 980.7
20260503181748 16 293 6.4 17.7 0.00 0.00 0.00 35 980.8
20260503181647 16 292 6.4 17.7 0.00 0.00 0.00 34 980.8
20260503181547 16 273 6.4 16.1 0.00 0.00 0.00 36 980.8
20260503181448 15 315 6.4 19.3 0.00 0.00 0.00 36 980.8
20260503181341 15 257 6.4 19.3 0.00 0.00 0.00 35 980.8
20260503181242 15 313 6.4 19.3 0.00 0.00 0.00 35 980.8
20260503181142 15 342 8.0 19.3 0.00 0.00 0.00 35 980.8
20260503181043 15 331 8.0 19.3 0.00 0.00 0.00 35 980.8
20260503180941 15 263 8.0 19.3 0.00 0.00 0.00 36 980.8
20260503180737 15 313 8.0 19.3 0.00 0.00 0.00 35 980.7
20260503180638 15 225 8.0 20.9 0.00 0.00 0.00 36 980.8
20260503180539 15 160 8.0 20.9 0.00 0.00 0.00 35 980.8
20260503180436 15 316 8.0 20.9 0.00 0.00 0.00 35 980.8
20260503180333 15 310 8.0 20.9 0.00 0.00 0.00 36 981.0
20260503180230 15 349 8.0 20.9 0.00 0.00 0.00 36 981.0
20260503180131 15 320 8.0 24.1 0.00 0.00 0.00 36 981.1
20260503180031 15 230 8.0 24.1 0.00 0.00 0.00 35 980.9
20260503175930 15 298 8.0 24.1 0.00 0.00 0.00 35 981.0
20260503175827 15 236 8.0 24.1 0.00 0.00 0.00 36 981.0
20260503175728 15 272 8.0 24.1 0.00 0.00 0.00 36 981.0
20260503175627 15 329 8.0 24.1 0.00 0.00 0.00 36 981.0
20260503175526 15 263 8.0 24.1 0.00 0.00 0.00 36 981.1
20260503175424 15 242 8.0 24.1 0.00 0.00 0.00 36 981.1
20260503175318 15 333 8.0 24.1 0.00 0.00 0.00 34 981.1
20260503175217 15 262 9.7 24.1 0.00 0.00 0.00 34 981.1
20260503175119 15 271 8.0 24.1 0.00 0.00 0.00 35 981.2
20260503175018 15 292 8.0 24.1 0.00 0.00 0.00 36 981.2
20260503174918 15 329 8.0 24.1 0.00 0.00 0.00 36 981.1
20260503174812 15 316 8.0 24.1 0.00 0.00 0.00 35 981.1
20260503174712 15 238 8.0 24.1 0.00 0.00 0.00 36 981.1
20260503174612 15 217 8.0 24.1 0.00 0.00 0.00 36 981.2
20260503174512 15 219 8.0 24.1 0.00 0.00 0.00 37 981.2
20260503174412 15 244 8.0 24.1 0.00 0.00 0.00 36 981.2
20260503174307 15 269 6.4 24.1 0.00 0.00 0.00 36 981.2
20260503174206 15 196 8.0 24.1 0.00 0.00 0.00 36 981.2
20260503174105 15 304 8.0 20.9 0.00 0.00 0.00 36 981.2
20260503174005 15 269 8.0 20.9 0.00 0.00 0.00 37 981.3
20260503173905 15 284 8.0 20.9 0.00 0.00 0.00 37 981.2
20260503173800 15 282 6.4 20.9 0.00 0.00 0.00 36 981.2
20260503173700 15 284 8.0 20.9 0.00 0.00 0.00 36 981.3
20260503173559 15 241 8.0 20.9 0.00 0.00 0.00 35 981.2
20260503173500 15 239 8.0 20.9 0.00 0.00 0.00 36 981.2
20260503173400 15 232 6.4 20.9 0.00 0.00 0.00 36 981.2
20260503173253 15 207 8.0 20.9 0.00 0.00 0.00 35 981.3
20260503173153 15 171 8.0 20.9 0.00 0.00 0.00 35 981.3
20260503173055 15 296 6.4 20.9 0.00 0.00 0.00 36 981.3
20260503172955 15 251 6.4 20.9 0.00 0.00 0.00 35 981.3
20260503172855 15 302 8.0 20.9 0.00 0.00 0.00 36 981.3
20260503172749 15 268 8.0 20.9 0.00 0.00 0.00 36 981.3
20260503172647 15 254 6.4 20.9 0.00 0.00 0.00 38 981.3
20260503172547 15 323 6.4 20.9 0.00 0.00 0.00 36 981.3
20260503172447 15 252 6.4 20.9 0.00 0.00 0.00 38 981.3
20260503172347 15 252 8.0 20.9 0.00 0.00 0.00 37 981.3
20260503172242 15 341 6.4 20.9 0.00 0.00 0.00 37 981.4
20260503172142 15 312 6.4 19.3 0.00 0.00 0.00 37 981.4
20260503172042 15 232 6.4 19.3 0.00 0.00 0.00 35 981.4
20260503171942 15 316 8.0 19.3 0.00 0.00 0.00 36 981.4
20260503171844 15 325 6.4 19.3 0.00 0.00 0.00 36 981.4
20260503171737 15 306 6.4 19.3 0.00 0.00 0.00 37 981.3
20260503171636 15 343 6.4 19.3 0.00 0.00 0.00 36 981.4
20260503171535 15 280 6.4 19.3 0.00 0.00 0.00 36 981.3
20260503171437 14 175 6.4 19.3 0.00 0.00 0.00 38 981.5
20260503171336 14 292 6.4 22.5 0.00 0.00 0.00 38 981.5
20260503171231 14 294 6.4 22.5 0.00 0.00 0.00 37 981.5
20260503171132 14 318 8.0 22.5 0.00 0.00 0.00 37 981.5
20260503171031 14 317 8.0 22.5 0.00 0.00 0.00 38 981.5
20260503170932 14 296 6.4 22.5 0.00 0.00 0.00 38 981.4
20260503170830 14 264 6.4 22.5 0.00 0.00 0.00 37 981.5
20260503170802 13 254 8.0 20.9 0.00 0.00 0.00 37 981.6
20260503170724 14 258 6.4 22.5 0.00 0.00 0.00 39 981.5
20260503170657 13 242 6.4 22.5 0.00 0.00 0.00 39 981.5
20260503170524 13 263 6.4 22.5 0.00 0.00 0.00 39 981.5
20260503170443 13 277 8.0 22.5 0.00 0.00 0.00 37 981.5
20260503170429 13 254 8.0 20.9 0.00 0.00 0.00 37 981.6
20260503170217 13 236 8.0 20.9 0.00 0.00 0.00 37 981.6
20260503170117 13 281 8.0 22.5 0.00 0.00 0.00 37 981.7
20260503160212 12 266 4.8 16.1 0.00 0.00 0.00 38 982.3
20260503160107 12 257 6.4 16.1 0.00 0.00 0.00 38 982.2
20260503151006 12 306 6.4 17.7 0.00 0.00 0.00 37 982.5
20260503150905 12 325 6.4 17.7 0.00 0.00 0.00 38 982.5
20260503150807 12 298 6.4 17.7 0.00 0.00 0.00 38 982.5
20260503150733 12 258 6.4 17.7 0.00 0.00 0.00 40 982.5
20260503150706 12 308 4.8 17.7 0.00 0.00 0.00 40 982.5
20260503150606 12 233 6.4 17.7 0.00 0.00 0.00 39 982.5
20260503150503 12 240 6.4 17.7 0.00 0.00 0.00 38 982.5
20260503150403 12 277 6.4 17.7 0.00 0.00 0.00 40 982.5
20260503150304 12 181 4.8 16.1 0.00 0.00 0.00 42 982.5
20260503150234 12 240 4.8 16.1 0.00 0.00 0.00 42 982.5
20260503150203 12 202 6.4 16.1 0.00 0.00 0.00 42 982.5
20260503140244 10 155 6.4 17.7 0.00 0.00 0.00 50 982.9
20260503140146 10 342 6.4 17.7 0.00 0.00 0.00 51 982.9
20260503131352 6 306 4.8 17.7 0.00 0.08 0.00 73 983.2
20260503131245 6 306 4.8 17.7 0.00 0.10 0.00 73 983.2
20260503131147 6 284 3.2 17.7 0.00 0.10 0.00 75 983.2
20260503131046 6 250 3.2 11.3 0.00 0.10 0.00 75 983.2
20260503130946 6 287 3.2 11.3 0.00 0.10 0.00 75 983.2
20260503130846 6 234 3.2 11.3 0.00 0.10 0.00 75 983.2
20260503130743 5 250 3.2 11.3 0.00 0.10 0.00 77 983.2
20260503130638 5 284 3.2 11.3 0.00 0.10 0.00 77 983.2
20260503130540 5 319 3.2 8.0 0.00 0.10 0.00 78 983.2
20260503130439 5 287 3.2 9.7 0.00 0.10 0.00 78 983.2
20260503130340 5 303 3.2 9.7 0.00 0.13 0.00 79 983.2
20260503130236 5 310 3.2 11.3 0.00 0.13 0.00 80 983.2
20260503130135 5 264 3.2 11.3 0.00 0.13 0.00 80 983.2
20260503120129 0 76 0.0 0.0 0.00 0.20 0.00 94 983.0
20260503110728 -1 76 0.0 0.0 0.00 0.20 0.00 93 982.6
20260503110624 -1 76 0.0 0.0 0.00 0.20 0.00 93 982.6
20260503110528 -1 76 0.0 0.0 0.00 0.20 0.00 93 982.6
20260503110427 -1 76 0.0 0.0 0.00 0.20 0.00 93 982.6
20260503110328 -1 76 0.0 0.0 0.00 0.20 0.00 93 982.6
20260503110227 -1 76 0.0 0.0 0.00 0.20 0.00 93 982.6
20260503110129 -1 76 0.0 0.0 0.00 0.20 0.00 93 982.6
20260503110124 -1 76 0.0 0.0 0.00 0.20 0.00 93 982.6
20260503100235 -1 316 0.0 0.0 0.00 0.20 0.00 92 982.1
20260503100114 -1 316 0.0 0.0 0.00 0.20 0.00 92 982.1
20260503090438 0 316 0.0 0.0 0.00 0.20 0.00 91 982.0
20260503090334 0 316 0.0 0.0 0.00 0.20 0.00 91 982.0
20260503090233 0 316 0.0 0.0 0.00 0.20 0.00 91 982.0
20260503090109 0 316 0.0 0.0 0.00 0.20 0.00 91 982.0
20260503081605 0 316 0.0 0.0 0.00 0.20 0.00 90 982.0
20260503081540 0 316 0.0 0.0 0.00 0.20 0.00 90 982.0
20260503081437 0 316 0.0 0.0 0.00 0.20 0.00 90 982.0
20260503081337 0 316 0.0 0.0 0.00 0.20 0.00 90 982.0
20260503081235 0 316 0.0 0.0 0.00 0.20 0.00 90 981.9
20260503081107 0 316 0.0 0.0 0.00 0.20 0.00 90 982.0
20260503081028 0 316 0.0 0.0 0.00 0.20 0.00 90 982.0
20260503080928 0 316 0.0 0.0 0.00 0.20 0.00 90 982.0
20260503080827 0 316 0.0 0.0 0.00 0.20 0.00 90 982.0
20260503080728 0 316 0.0 0.0 0.00 0.20 0.00 90 982.0
20260503080604 0 316 0.0 0.0 0.00 0.20 0.00 90 982.0
20260503080521 0 316 0.0 0.0 0.00 0.20 0.00 90 982.0
20260503080422 0 316 0.0 0.0 0.00 0.20 0.00 90 982.0
20260503080327 0 316 0.0 0.0 0.00 0.20 0.00 90 981.9
20260503080320 0 316 0.0 0.0 0.00 0.20 0.00 90 982.0
20260503080221 0 316 0.0 0.0 0.00 0.20 0.00 90 981.9
20260503080208 0 316 0.0 0.0 0.00 0.20 0.00 90 981.9
20260503072941 1 316 0.0 0.0 0.00 0.20 0.00 90 981.8
20260503072838 1 316 0.0 0.0 0.00 0.20 0.00 90 981.7
20260503072739 1 316 0.0 0.0 0.00 0.20 0.00 90 981.7
20260503072637 1 316 0.0 0.0 0.00 0.20 0.00 90 981.7
20260503072535 1 316 0.0 0.0 0.00 0.20 0.00 90 981.7
20260503072434 1 316 0.0 0.0 0.00 0.20 0.00 90 981.7
20260503072333 1 316 0.0 0.0 0.00 0.20 0.00 90 981.7
20260503072234 1 316 0.0 0.0 0.00 0.20 0.00 90 981.7
20260503072130 1 316 0.0 0.0 0.00 0.20 0.00 90 981.7
20260503072029 1 316 0.0 0.0 0.00 0.20 0.00 90 981.6
20260503071923 1 316 0.0 0.0 0.00 0.20 0.00 90 981.7
20260503071823 1 316 0.0 0.0 0.00 0.20 0.00 90 981.6
20260503071722 1 316 0.0 0.0 0.00 0.20 0.00 90 981.7
20260503071623 1 316 0.0 0.0 0.00 0.20 0.00 90 981.6
20260503071523 1 316 0.0 0.0 0.00 0.20 0.00 90 981.7
20260503071416 1 316 0.0 0.0 0.00 0.20 0.00 90 981.7
20260503071317 1 316 0.0 0.0 0.00 0.20 0.00 90 981.7
20260503071218 1 316 0.0 0.0 0.00 0.20 0.00 90 981.7
20260503071116 1 316 0.0 0.0 0.00 0.20 0.00 90 981.7
20260503071016 1 316 0.0 0.0 0.00 0.20 0.00 90 981.7
20260503070915 1 316 0.0 0.0 0.00 0.20 0.00 90 981.6
20260503070815 1 316 0.0 0.0 0.00 0.20 0.00 90 981.7
20260503070714 1 316 0.0 0.0 0.00 0.20 0.00 90 981.7
20260503070612 1 316 0.0 0.0 0.00 0.20 0.00 90 981.7
20260503070511 1 316 0.0 0.0 0.00 0.20 0.00 90 981.7
20260503070452 1 316 0.0 0.0 0.00 0.20 0.00 90 981.7
20260503070411 1 316 0.0 0.0 0.00 0.20 0.00 90 981.7
20260503070341 1 316 0.0 0.0 0.00 0.20 0.00 90 981.7
20260503070209 1 316 0.0 0.0 0.00 0.20 0.00 90 981.7
20260503070124 1 316 0.0 0.0 0.00 0.20 0.00 90 981.7
20260503070109 1 316 0.0 0.0 0.00 0.20 0.00 90 981.7
20260503060258 1 316 0.0 0.0 0.00 0.20 0.00 90 981.9
20260503060158 1 316 0.0 0.0 0.00 0.20 0.00 90 981.9
20260503055044 1 316 0.0 0.0 0.00 0.20 0.00 90 981.9
20260503054943 1 316 0.0 0.0 0.00 0.20 0.00 90 981.9
20260503054840 1 316 0.0 0.0 0.00 0.20 0.00 90 981.9
20260503054739 1 316 0.0 0.0 0.00 0.20 0.00 90 981.9
20260503054639 1 316 0.0 0.0 0.00 0.20 0.00 90 981.9
20260503054539 1 316 0.0 0.0 0.00 0.20 0.00 90 981.9
20260503054438 1 316 0.0 0.0 0.00 0.20 0.00 90 981.9
20260503054335 1 316 0.0 0.0 0.00 0.20 0.00 90 981.9
20260503054235 1 316 0.0 0.0 0.00 0.20 0.00 90 981.9
20260503054133 1 316 0.0 0.0 0.00 0.20 0.00 90 981.9
20260503054033 1 316 0.0 0.0 0.00 0.20 0.00 90 981.9
20260503053931 1 316 0.0 0.0 0.00 0.20 0.00 90 981.9
20260503053829 1 316 0.0 0.0 0.00 0.20 0.00 90 981.9
20260503053727 1 316 0.0 0.0 0.00 0.20 0.00 90 981.9
20260503053628 1 316 0.0 0.0 0.00 0.20 0.00 90 981.9
20260503053526 1 316 0.0 0.0 0.00 0.20 0.00 90 981.9
20260503053425 1 316 0.0 0.0 0.00 0.20 0.00 90 981.9
20260503053322 1 316 0.0 0.0 0.00 0.20 0.00 90 981.9
20260503053219 1 316 0.0 0.0 0.00 0.20 0.00 90 982.0
20260503053117 1 316 0.0 0.0 0.00 0.20 0.00 90 981.9
20260503053016 1 316 0.0 0.0 0.00 0.20 0.00 90 982.0
20260503052917 1 316 0.0 0.0 0.00 0.20 0.00 90 982.0
20260503052817 1 316 0.0 0.0 0.00 0.20 0.00 90 982.0
20260503052715 1 316 0.0 0.0 0.00 0.20 0.00 89 982.0
20260503052615 1 316 0.0 0.0 0.00 0.20 0.00 89 982.0
20260503052514 1 316 0.0 0.0 0.00 0.20 0.00 89 982.1
20260503052414 1 316 0.0 0.0 0.00 0.20 0.00 89 982.0
20260503052311 1 316 0.0 0.0 0.00 0.20 0.00 89 982.1
20260503052209 1 316 0.0 0.0 0.00 0.20 0.00 89 982.1
20260503052108 1 316 0.0 0.0 0.00 0.20 0.00 89 982.0
20260503052009 1 316 0.0 0.0 0.00 0.20 0.00 89 982.0
20260503051906 1 316 0.0 0.0 0.00 0.20 0.00 89 982.0
20260503051805 1 316 0.0 0.0 0.00 0.20 0.00 89 982.1
20260503051704 1 316 0.0 0.0 0.00 0.20 0.00 89 982.0
20260503051603 1 316 0.0 0.0 0.00 0.20 0.00 89 982.0
20260503051504 1 316 0.0 0.0 0.00 0.20 0.00 89 982.1
20260503051402 1 316 0.0 0.0 0.00 0.20 0.00 89 982.0
20260503051259 1 316 0.0 0.0 0.00 0.20 0.00 89 982.1
20260503051155 1 316 0.0 0.0 0.00 0.20 0.00 89 982.0
20260503051056 1 316 0.0 0.0 0.00 0.20 0.00 89 982.0
20260503050954 1 316 0.0 0.0 0.00 0.20 0.00 89 982.0
20260503050855 1 316 0.0 0.0 0.00 0.20 0.00 89 982.0
20260503050753 1 316 0.0 0.0 0.00 0.20 0.00 89 982.0
20260503050652 1 316 0.0 0.0 0.00 0.20 0.00 89 982.1
20260503050550 1 316 0.0 0.0 0.00 0.20 0.00 89 982.0
20260503050449 1 316 0.0 0.0 0.00 0.20 0.00 89 982.0
20260503050350 1 316 0.0 0.0 0.00 0.20 0.00 89 982.1
20260503050248 1 316 0.0 0.0 0.00 0.20 0.00 89 982.1
20260503050147 1 316 0.0 0.0 0.00 0.20 0.00 89 982.1
20260503050046 1 316 0.0 0.0 0.00 0.20 0.00 89 982.1
20260503045946 1 316 0.0 0.0 0.00 0.20 0.00 89 982.1
20260503045843 1 316 0.0 0.0 0.00 0.20 0.00 89 982.1
20260503045741 1 316 0.0 0.0 0.00 0.20 0.00 89 982.1
20260503045642 1 316 0.0 0.0 0.00 0.20 0.00 89 982.1
20260503045538 1 316 0.0 0.0 0.00 0.20 0.00 89 982.1
20260503045438 1 316 0.0 0.0 0.00 0.20 0.00 89 982.1
20260503045338 1 316 0.0 0.0 0.00 0.20 0.00 88 982.1
20260503045235 1 316 0.0 0.0 0.00 0.20 0.00 88 982.1
20260503045133 1 316 0.0 0.0 0.00 0.20 0.00 88 982.1
20260503045035 1 316 0.0 0.0 0.00 0.20 0.00 88 982.1
20260503044951 1 316 0.0 0.0 0.00 0.20 0.00 88 982.2
20260503044932 1 316 0.0 0.0 0.00 0.20 0.00 88 982.2
20260503044849 1 316 0.0 0.0 0.00 0.20 0.00 88 982.1
20260503044835 1 316 0.0 0.0 0.00 0.20 0.00 88 982.2
20260503044628 1 316 0.0 0.0 0.00 0.20 0.00 88 982.2
20260503044526 1 316 0.0 0.0 0.00 0.20 0.00 88 982.2
20260503044427 1 316 0.0 0.0 0.00 0.20 0.00 88 982.2
20260503044325 1 316 0.0 0.0 0.00 0.20 0.00 88 982.2
20260503044224 1 316 0.0 0.0 0.00 0.20 0.00 88 982.2
20260503044118 1 316 0.0 0.0 0.00 0.20 0.00 88 982.2
20260503044019 1 316 0.0 0.0 0.00 0.20 0.00 88 982.2
20260503043919 1 316 0.0 0.0 0.00 0.20 0.00 88 982.2
20260503043819 1 316 0.0 0.0 0.00 0.20 0.00 88 982.2
20260503043717 1 316 0.0 0.0 0.00 0.20 0.00 87 982.2
20260503043616 1 316 0.0 0.0 0.00 0.20 0.00 87 982.2
20260503043514 1 316 0.0 0.0 0.00 0.20 0.00 87 982.2
20260503043415 1 316 0.0 0.0 0.00 0.20 0.00 87 982.2
20260503043313 1 316 0.0 0.0 0.00 0.20 0.00 87 982.2
20260503043210 1 316 0.0 0.0 0.00 0.20 0.00 87 982.2
20260503043106 1 316 0.0 0.0 0.00 0.20 0.00 87 982.2
20260503043005 1 316 0.0 0.0 0.00 0.20 0.00 87 982.2
20260503042805 1 316 0.0 0.0 0.00 0.20 0.00 87 982.2
20260503042706 1 316 0.0 0.0 0.00 0.20 0.00 87 982.3
20260503042605 1 316 0.0 0.0 0.00 0.20 0.00 86 982.3
20260503042502 1 316 0.0 0.0 0.00 0.20 0.00 86 982.2
20260503042402 2 316 0.0 0.0 0.00 0.20 0.00 86 982.3
20260503042301 1 316 0.0 0.0 0.00 0.20 0.00 86 982.2
20260503042211 1 316 0.0 0.0 0.00 0.20 0.00 86 982.2
20260503042159 1 316 0.0 0.0 0.00 0.20 0.00 86 982.2
20260503042056 2 316 0.0 0.0 0.00 0.20 0.00 86 982.3
20260503041957 2 316 0.0 0.0 0.00 0.20 0.00 86 982.2
20260503041856 2 316 0.0 0.0 0.00 0.20 0.00 86 982.3
20260503041755 2 316 0.0 0.0 0.00 0.20 0.00 86 982.2
20260503041710 2 316 0.0 0.0 0.00 0.20 0.00 86 982.2
20260503041654 2 316 0.0 0.0 0.00 0.20 0.00 86 982.2
20260503041556 2 316 0.0 0.0 0.00 0.20 0.00 86 982.2
20260503041455 2 316 0.0 0.0 0.00 0.20 0.00 86 982.2
20260503041354 2 316 0.0 0.0 0.00 0.20 0.00 86 982.2
20260503041252 2 316 0.0 0.0 0.00 0.20 0.00 86 982.2
20260503041210 2 316 0.0 0.0 0.00 0.20 0.00 86 982.2
20260503041153 2 316 0.0 0.0 0.00 0.20 0.00 86 982.2
20260503041050 2 316 0.0 0.0 0.00 0.20 0.00 86 982.2
20260503040949 2 316 0.0 0.0 0.00 0.20 0.00 86 982.2
20260503040847 2 316 0.0 0.0 0.00 0.20 0.00 86 982.2
20260503040746 2 316 0.0 0.0 0.00 0.20 0.00 85 982.2
20260503040711 2 316 0.0 0.0 0.00 0.20 0.00 85 982.2
20260503040647 2 316 0.0 0.0 0.00 0.20 0.00 85 982.2
20260503040545 2 316 0.0 0.0 0.00 0.20 0.00 85 982.2
20260503040443 2 316 0.0 0.0 0.00 0.20 0.00 85 982.2
20260503040343 2 316 0.0 0.0 0.00 0.20 0.00 85 982.3
20260503040243 2 316 0.0 0.0 0.00 0.20 0.00 85 982.3
20260503040210 2 316 0.0 0.0 0.00 0.20 0.00 85 982.3
20260503040137 2 316 0.0 0.0 0.00 0.20 0.00 85 982.3
20260503040032 2 316 0.0 0.0 0.00 0.20 0.00 85 982.3
20260503035931 2 316 0.0 0.0 0.00 0.20 0.20 85 982.3
20260503035925 2 316 0.0 0.0 0.00 0.20 0.20 85 982.3
20260503035829 2 316 0.0 0.0 0.00 0.20 0.20 85 982.3
20260503035815 2 316 0.0 0.0 0.00 0.20 0.20 85 982.3
20260503035628 2 316 0.0 0.0 0.00 0.20 0.20 85 982.3
20260503035522 2 316 0.0 0.0 0.00 0.20 0.20 84 982.3
20260503035428 2 316 0.0 0.0 0.00 0.20 0.20 84 982.2
20260503035422 2 316 0.0 0.0 0.00 0.20 0.20 84 982.3
20260503035327 2 316 0.0 0.0 0.00 0.20 0.20 84 982.3
20260503035314 2 316 0.0 0.0 0.00 0.20 0.20 84 982.2
20260503035123 2 316 0.0 0.0 0.00 0.20 0.20 84 982.2
20260503035023 2 316 0.0 0.0 0.00 0.20 0.20 84 982.2
20260503034924 2 316 0.0 0.0 0.00 0.20 0.20 84 982.3
20260503034823 2 316 0.0 0.0 0.00 0.20 0.20 84 982.3
20260503034708 2 316 0.0 0.0 0.00 0.20 0.20 84 982.3
20260503034623 2 316 0.0 0.0 0.00 0.20 0.20 84 982.3
20260503034523 2 316 0.0 0.0 0.00 0.20 0.20 84 982.2
20260503034423 2 316 0.0 0.0 0.00 0.20 0.20 84 982.2
20260503034324 2 316 0.0 0.0 0.00 0.20 0.20 83 982.2
20260503034207 2 316 0.0 0.0 0.00 0.20 0.20 83 982.2
20260503034123 2 316 0.0 0.0 0.00 0.20 0.20 83 982.2
20260503034024 2 316 0.0 0.0 0.00 0.20 0.20 83 982.2
20260503033923 2 316 0.0 0.0 0.00 0.20 0.20 83 982.2
20260503033822 2 316 0.0 0.0 0.00 0.20 0.20 83 982.2
20260503033707 2 316 0.0 0.0 0.00 0.20 0.20 83 982.2
20260503033620 2 316 0.0 0.0 0.00 0.20 0.20 83 982.2
20260503033518 2 316 0.0 0.0 0.00 0.20 0.20 83 982.2
20260503033419 2 316 0.0 0.0 0.00 0.20 0.20 83 982.2
20260503033318 2 316 0.0 0.0 0.00 0.20 0.20 82 982.2
20260503033208 2 316 0.0 0.0 0.00 0.20 0.20 82 982.2
20260503033112 2 316 0.0 0.0 0.00 0.20 0.20 82 982.2
20260503033007 2 316 0.0 0.0 0.00 0.20 0.20 82 982.2
20260503032908 2 316 0.0 0.0 0.00 0.20 0.20 81 982.2
20260503032808 2 316 0.0 0.0 0.00 0.20 0.20 81 982.2
20260503032707 2 316 0.0 0.0 0.00 0.20 0.20 81 982.2
20260503032602 2 316 0.0 0.0 0.00 0.20 0.20 81 982.2
20260503032502 2 316 0.0 0.0 0.00 0.20 0.20 81 982.2
20260503032401 2 316 0.0 0.0 0.00 0.20 0.20 81 982.2
20260503032301 2 316 0.0 0.0 0.00 0.20 0.20 81 982.2
20260503032201 2 316 0.0 0.0 0.00 0.20 0.20 81 982.2
20260503032056 2 316 0.0 0.0 0.00 0.20 0.20 81 982.2
20260503031955 3 316 0.0 0.0 0.00 0.20 0.20 81 982.2
20260503031852 3 316 0.0 0.0 0.00 0.20 0.20 81 982.2
20260503031750 3 316 0.0 0.0 0.00 0.20 0.20 81 982.2
20260503031648 3 316 0.0 0.0 0.00 0.20 0.20 82 982.2
20260503031547 3 316 0.0 0.0 0.00 0.20 0.20 82 982.2
20260503031446 3 316 0.0 0.0 0.00 0.20 0.20 82 982.1
20260503031346 3 316 0.0 0.0 0.00 0.20 0.20 81 982.2
20260503031242 3 316 0.0 0.0 0.00 0.20 0.20 81 982.2
20260503031142 3 316 0.0 0.0 0.00 0.20 0.20 81 982.2
20260503031039 3 316 0.0 0.0 0.00 0.20 0.20 81 982.2
20260503030938 3 316 0.0 0.0 0.00 0.20 0.20 81 982.2
20260503030840 3 316 0.0 0.0 0.00 0.20 0.20 81 982.2
20260503030737 3 316 0.0 0.0 0.00 0.20 0.20 81 982.2
20260503030634 3 316 0.0 0.0 0.00 0.20 0.20 81 982.3
20260503030534 3 316 0.0 0.0 0.00 0.20 0.20 81 982.2
20260503030432 3 316 0.0 0.0 0.00 0.20 0.20 81 982.3
20260503030332 3 316 0.0 0.0 0.00 0.20 0.20 81 982.2
20260503030228 3 316 0.0 0.0 0.00 0.20 0.20 81 982.2
20260503030128 3 316 0.0 0.0 0.00 0.20 0.20 81 982.2
20260503030027 3 316 0.0 0.0 0.00 0.20 0.20 81 982.2
20260503025926 3 316 0.0 0.0 0.00 0.20 0.20 81 982.2
20260503025824 3 316 0.0 0.0 0.00 0.20 0.20 81 982.2
20260503025724 3 316 0.0 0.0 0.00 0.20 0.20 81 982.2
20260503025621 3 316 0.0 0.0 0.00 0.20 0.20 81 982.2
20260503025520 3 316 0.0 0.0 0.00 0.20 0.20 81 982.3
20260503025419 3 316 0.0 0.0 0.00 0.20 0.20 81 982.2
20260503025320 3 316 0.0 0.0 0.00 0.20 0.20 80 982.2
20260503025219 3 316 0.0 0.0 0.00 0.20 0.20 80 982.3
20260503025124 3 316 0.0 0.0 0.00 0.20 0.20 80 982.3
20260503025119 3 316 0.0 0.0 0.00 0.20 0.20 80 982.2
20260503025015 3 316 0.0 0.0 0.00 0.20 0.20 80 982.3
20260503024912 3 316 0.0 0.0 0.00 0.20 0.20 80 982.2
20260503024845 3 316 0.0 0.0 0.00 0.20 0.20 80 982.3
20260503024813 3 316 0.0 0.0 0.00 0.20 0.20 80 982.2
20260503024735 3 316 0.0 0.0 0.00 0.20 0.20 80 982.2
20260503024614 3 316 0.0 0.0 0.00 0.20 0.20 80 982.3
20260503024512 3 316 0.0 0.0 0.00 0.20 0.20 79 982.3
20260503024412 3 316 0.0 0.0 0.00 0.20 0.20 79 982.3
20260503024311 3 316 0.0 0.0 0.00 0.20 0.20 79 982.3
20260503024209 3 316 0.0 0.0 0.00 0.20 0.20 79 982.3
20260503024107 3 316 0.0 0.0 0.00 0.20 0.20 79 982.3
20260503024006 3 316 0.0 0.0 0.00 0.20 0.20 79 982.3
20260503023905 3 316 0.0 0.0 0.00 0.20 0.20 79 982.3
20260503023806 3 316 0.0 0.0 0.00 0.20 0.20 79 982.3
20260503023703 3 316 0.0 0.0 0.00 0.20 0.20 79 982.4
20260503023620 3 316 0.0 0.0 0.00 0.20 0.20 79 982.4
20260503023601 4 316 0.0 0.0 0.00 0.20 0.20 79 982.4
20260503023457 4 316 0.0 0.0 0.00 0.20 0.20 79 982.4
20260503023356 4 316 0.0 0.0 0.00 0.20 0.20 79 982.4
20260503023256 4 316 0.0 0.0 0.00 0.20 0.20 78 982.4
20260503023155 4 316 0.0 0.0 0.00 0.20 0.20 78 982.4
20260503023122 4 316 0.0 0.0 0.00 0.20 0.20 78 982.4
20260503023055 4 316 0.0 0.0 0.00 0.20 0.20 78 982.4
20260503022953 4 316 0.0 0.0 0.00 0.20 0.20 78 982.4
20260503022854 4 316 0.0 0.0 0.00 0.20 0.20 78 982.4
20260503022753 4 316 0.0 0.0 0.00 0.20 0.20 78 982.4
20260503022652 4 316 0.0 0.0 0.00 0.20 0.20 78 982.4
20260503022619 4 316 0.0 0.0 0.00 0.20 0.20 78 982.4
20260503022549 4 316 0.0 0.0 0.00 0.20 0.20 78 982.4
20260503022447 4 316 0.0 0.0 0.00 0.20 0.20 78 982.4
20260503022347 4 316 0.0 0.0 0.00 0.20 0.20 78 982.4
20260503022248 4 316 0.0 0.0 0.00 0.20 0.20 78 982.4
20260503022117 4 316 0.0 0.0 0.00 0.20 0.20 78 982.4
20260503022043 4 316 0.0 0.0 0.00 0.20 0.20 78 982.4
20260503021938 4 316 0.0 0.0 0.00 0.20 0.20 78 982.4
20260503021838 4 316 0.0 0.0 0.00 0.20 0.20 78 982.4
20260503021737 4 316 0.0 0.0 0.00 0.20 0.20 78 982.4
20260503021616 4 316 0.0 0.0 0.00 0.20 0.20 77 982.4
20260503021538 4 316 0.0 0.0 0.00 0.20 0.20 77 982.4
20260503021431 4 316 0.0 0.0 0.00 0.20 0.20 77 982.4
20260503021330 4 316 0.0 0.0 0.00 0.20 0.20 77 982.4
20260503021231 4 316 0.0 0.0 0.00 0.20 0.20 77 982.4
20260503021118 4 316 0.0 0.0 0.00 0.20 0.20 77 982.4
20260503021031 4 316 0.0 0.0 0.00 0.20 0.20 77 982.4
20260503020927 4 316 0.0 0.0 0.00 0.20 0.20 76 982.4
20260503020826 4 316 0.0 0.0 0.00 0.20 0.20 76 982.4
20260503020725 4 316 0.0 0.0 0.00 0.20 0.20 76 982.4
20260503020617 4 316 0.0 0.0 0.00 0.20 0.20 76 982.4
20260503020525 4 316 0.0 0.0 0.00 0.20 0.20 76 982.4
20260503020421 4 316 0.0 0.0 0.00 0.20 0.20 76 982.4
20260503020319 4 316 0.0 0.0 0.00 0.20 0.20 76 982.4
20260503020219 4 316 0.0 0.0 0.00 0.20 0.20 76 982.4
20260503020120 4 316 0.0 0.0 0.00 0.20 0.20 76 982.4
20260503020116 4 316 0.0 0.0 0.00 0.20 0.20 75 982.4
20260503020019 4 316 0.0 0.0 0.00 0.20 0.20 75 982.4
20260503015919 4 316 0.0 0.0 0.00 0.20 0.20 75 982.4
20260503015818 4 316 0.0 0.0 0.00 0.20 0.20 75 982.4
20260503015714 4 316 0.0 0.0 0.00 0.20 0.20 75 982.4
20260503015616 4 316 0.0 0.0 0.00 0.20 0.20 75 982.4
20260503015513 4 316 0.0 0.0 0.00 0.20 0.20 75 982.4
20260503015411 4 316 0.0 0.0 0.00 0.20 0.20 74 982.4
20260503015311 4 316 0.0 0.0 0.00 0.20 0.20 74 982.4
20260503015212 4 316 0.0 0.0 0.00 0.20 0.20 74 982.4
20260503015109 4 316 0.0 0.0 0.00 0.20 0.20 74 982.4
20260503015007 4 316 0.0 3.2 0.00 0.20 0.20 74 982.4
20260503014902 4 316 0.0 3.2 0.00 0.20 0.20 74 982.4
20260503014801 4 316 0.0 3.2 0.00 0.20 0.20 74 982.4
20260503014700 4 316 0.0 3.2 0.00 0.20 0.20 73 982.4
20260503014610 4 316 0.0 3.2 0.00 0.20 0.20 73 982.3
20260503014602 4 316 0.0 3.2 0.00 0.20 0.20 73 982.3
20260503014500 4 316 0.0 3.2 0.00 0.20 0.20 73 982.4
20260503014400 4 316 0.0 3.2 0.00 0.20 0.20 73 982.4
20260503014259 4 316 0.0 3.2 0.00 0.20 0.20 73 982.4
20260503014159 5 316 0.0 3.2 0.00 0.20 0.20 73 982.4
20260503014108 5 316 0.0 3.2 0.00 0.20 0.20 72 982.4
20260503014057 5 316 0.0 3.2 0.00 0.20 0.20 72 982.4
20260503013955 5 316 0.0 3.2 0.00 0.20 0.20 72 982.3
20260503013854 5 316 0.0 3.2 0.00 0.20 0.20 72 982.4
20260503013831 5 316 0.0 3.2 0.00 0.20 0.20 71 982.3
20260503013753 5 316 0.0 3.2 0.00 0.20 0.20 71 982.4
20260503013719 5 316 0.0 3.2 0.00 0.20 0.20 71 982.3
20260503013552 5 316 0.0 3.2 0.00 0.20 0.20 71 982.3
20260503013449 5 316 0.0 3.2 0.00 0.20 0.20 71 982.4
20260503013345 5 316 0.0 3.2 0.00 0.20 0.20 71 982.3
20260503013324 5 316 0.0 3.2 0.00 0.20 0.20 70 982.4
20260503013244 5 316 0.0 3.2 0.00 0.20 0.20 70 982.4
20260503013217 5 316 0.0 3.2 0.00 0.20 0.20 70 982.4
20260503013044 5 316 0.0 3.2 0.00 0.20 0.20 70 982.4
20260503012943 5 316 0.0 3.2 0.00 0.20 0.20 70 982.4
20260503012843 5 316 1.6 3.2 0.00 0.20 0.20 70 982.3
20260503012742 5 316 1.6 3.2 0.00 0.20 0.20 69 982.3
20260503012638 5 316 1.6 3.2 0.00 0.20 0.20 69 982.3
20260503012606 5 316 1.6 3.2 0.00 0.20 0.20 69 982.3
20260503012539 5 316 1.6 3.2 0.00 0.20 0.20 69 982.3
20260503012437 5 316 1.6 3.2 0.00 0.20 0.20 69 982.3
20260503012336 5 316 1.6 3.2 0.00 0.20 0.20 68 982.3
20260503012325 5 316 0.0 3.2 0.00 0.20 0.20 68 982.3
20260503012234 5 316 1.6 3.2 0.00 0.20 0.20 68 982.3
20260503012214 5 316 1.6 3.2 0.00 0.20 0.20 68 982.3
20260503012032 5 316 0.0 3.2 0.00 0.20 0.20 68 982.3
20260503011930 5 316 0.0 3.2 0.00 0.20 0.20 68 982.3
20260503011826 5 316 0.0 3.2 0.00 0.20 0.20 68 982.3
20260503011726 5 316 0.0 3.2 0.00 0.20 0.20 68 982.3
20260503011605 5 316 0.0 3.2 0.00 0.20 0.20 68 982.3
20260503011525 5 316 0.0 3.2 0.00 0.20 0.20 68 982.3
20260503011423 5 316 0.0 3.2 0.00 0.20 0.20 68 982.3
20260503011318 5 316 0.0 3.2 0.00 0.20 0.20 68 982.3
20260503011219 5 316 0.0 3.2 0.00 0.20 0.20 68 982.3
20260503011119 5 316 0.0 3.2 0.00 0.20 0.20 67 982.3
20260503011101 5 316 0.0 3.2 0.00 0.20 0.20 67 982.3
20260503011020 5 316 0.0 3.2 0.00 0.20 0.20 67 982.3
20260503010917 5 316 0.0 3.2 0.00 0.20 0.20 67 982.2
20260503010814 5 316 0.0 3.2 0.00 0.20 0.20 67 982.2
20260503010715 5 316 0.0 3.2 0.00 0.20 0.20 67 982.2
20260503010616 5 316 0.0 3.2 0.00 0.20 0.20 67 982.2
20260503010553 5 316 0.0 3.2 0.00 0.20 0.20 67 982.2
20260503010512 5 316 0.0 3.2 0.00 0.20 0.20 68 982.2
20260503010411 5 5 0.0 3.2 0.00 0.20 0.20 68 982.2
20260503010304 5 5 0.0 3.2 0.00 0.20 0.20 68 982.2
20260503010205 5 5 0.0 3.2 0.00 0.20 0.20 68 982.2
20260503010106 5 5 0.0 3.2 0.00 0.20 0.20 67 982.3
20260503010046 5 9 0.0 3.2 0.00 0.20 0.20 67 982.3
20260503010004 5 5 0.0 3.2 0.00 0.20 0.20 67 982.2
20260503005905 5 5 0.0 3.2 0.00 0.20 0.20 67 982.2
20260503005801 5 9 0.0 3.2 0.00 0.20 0.20 67 982.2
20260503005700 5 9 0.0 3.2 0.00 0.20 0.20 67 982.2
20260503005540 5 5 0.0 3.2 0.00 0.20 0.20 66 982.2
20260503005456 5 9 0.0 3.2 0.00 0.20 0.20 66 982.2
20260503005357 5 5 0.0 3.2 0.00 0.20 0.20 66 982.2
20260503005300 5 5 0.0 3.2 0.00 0.20 0.20 66 982.2
20260503005253 5 5 0.0 3.2 0.00 0.20 0.20 66 982.2
20260503005155 5 9 0.0 3.2 0.00 0.20 0.20 66 982.2
20260503005140 5 9 0.0 3.2 0.00 0.20 0.20 66 982.2
20260503004950 5 5 0.0 3.2 0.00 0.20 0.20 66 982.2
20260503004851 5 5 0.0 3.2 0.00 0.20 0.20 67 982.2
20260503004752 5 5 0.0 3.2 0.00 0.20 0.20 67 982.1
20260503004648 5 5 0.0 3.2 0.00 0.20 0.20 67 982.2
20260503004528 5 5 0.0 3.2 0.00 0.20 0.20 66 982.1
20260503004447 5 5 0.0 3.2 0.00 0.20 0.20 66 982.1
20260503004345 5 5 0.0 3.2 0.00 0.20 0.20 66 982.1
20260503004241 5 5 0.0 3.2 0.00 0.20 0.20 66 982.1
20260503004140 5 9 0.0 3.2 0.00 0.20 0.20 66 982.1
20260503004040 5 9 0.0 3.2 0.00 0.20 0.20 65 982.1
20260503004021 5 5 0.0 3.2 0.00 0.20 0.20 65 982.0
20260503003941 5 5 1.6 3.2 0.00 0.20 0.20 65 982.0
20260503003839 5 5 1.6 3.2 0.00 0.20 0.20 65 982.0
20260503003736 5 5 0.0 3.2 0.00 0.20 0.20 65 982.0
20260503003536 5 355 0.0 3.2 0.00 0.20 0.20 65 982.0
20260503003516 5 5 0.0 3.2 0.00 0.20 0.20 65 982.0
20260503003333 5 5 0.0 3.2 0.00 0.20 0.20 65 982.0
20260503003231 5 5 0.0 3.2 0.00 0.20 0.20 65 982.0
20260503003132 5 5 0.0 3.2 0.00 0.20 0.20 65 981.9
20260503003031 5 5 0.0 3.2 0.00 0.20 0.20 65 982.0
20260503003009 5 0 0.0 3.2 0.00 0.20 0.20 65 981.9
20260503002929 5 355 0.0 3.2 0.00 0.20 0.20 65 981.9
20260503002827 5 355 0.0 3.2 0.00 0.20 0.20 65 981.9
20260503002720 5 26 0.0 3.2 0.00 0.20 0.20 65 981.9
20260503002622 5 26 0.0 12.9 0.00 0.20 0.20 65 981.9
20260503002503 5 317 0.0 12.9 0.00 0.20 0.20 65 981.9
20260503002420 5 317 0.0 12.9 0.00 0.20 0.20 65 981.9
20260503002321 5 317 1.6 12.9 0.00 0.20 0.20 65 981.9
20260503002219 5 23 1.6 12.9 0.00 0.20 0.20 65 981.9
20260503002215 5 23 1.6 12.9 0.00 0.20 0.20 65 981.9
20260503002119 5 23 1.6 12.9 0.00 0.20 0.20 65 981.9
20260503002105 5 23 1.6 12.9 0.00 0.20 0.20 65 981.9
20260503001917 5 23 1.6 12.9 0.00 0.20 0.20 65 981.9
20260503001815 5 23 1.6 12.9 0.00 0.20 0.20 65 981.9
20260503001716 5 23 3.2 12.9 0.00 0.20 0.20 64 981.9
20260503001612 5 23 3.2 12.9 0.00 0.20 0.20 64 981.9
20260503001513 5 31 3.2 12.9 0.00 0.20 0.20 64 982.0
20260503001452 5 289 3.2 12.9 0.00 0.20 0.20 63 982.0
20260503001411 5 32 3.2 12.9 0.00 0.20 0.20 63 981.9
20260503001309 5 19 3.2 12.9 0.00 0.20 0.20 63 982.0
20260503001204 5 335 3.2 12.9 0.00 0.20 0.20 62 981.9
20260503001104 5 335 3.2 12.9 0.00 0.20 0.20 62 981.9
20260503001004 6 335 3.2 12.9 0.00 0.20 0.20 62 981.9
20260503000946 6 335 3.2 12.9 0.00 0.20 0.20 62 981.9
20260503000902 6 331 3.2 12.9 0.00 0.20 0.20 62 981.9
20260503000803 6 355 3.2 12.9 0.00 0.20 0.20 62 981.9
20260503000704 6 288 1.6 4.8 0.00 0.20 0.20 64 981.9
20260503000658 6 17 1.6 12.9 0.00 0.20 0.20 63 981.9
20260503000600 6 36 1.6 8.0 0.00 0.20 0.20 63 981.9
20260503000546 6 355 1.6 8.0 0.00 0.20 0.20 64 981.9
20260503000400 6 313 1.6 4.8 0.00 0.20 0.20 64 981.9
20260503000257 6 278 0.0 3.2 0.00 0.20 0.20 64 981.9
20260503000157 6 5 1.6 3.2 0.00 0.20 0.20 64 981.9
20260503000055 6 5 1.6 4.8 0.00 0.20 0.20 63 981.9
20260502235933 6 332 1.6 8.0 0.00 0.20 0.20 64 981.8
20260502235854 6 332 1.6 8.0 0.00 0.20 0.20 64 981.7
20260502235750 6 332 1.6 8.0 0.00 0.20 0.20 64 981.7
20260502235651 6 332 1.6 8.0 0.00 0.20 0.20 64 981.7
20260502235549 6 332 1.6 8.0 0.00 0.20 0.20 64 981.7
20260502235448 6 350 1.6 8.0 0.00 0.20 0.20 63 981.7
20260502235427 6 346 1.6 8.0 0.00 0.20 0.20 63 981.7
20260502235348 6 346 1.6 8.0 0.00 0.20 0.20 63 981.7
20260502235245 6 345 1.6 8.0 0.00 0.20 0.20 62 981.7
20260502235146 6 345 1.6 8.0 0.00 0.20 0.20 62 981.7
20260502235043 6 293 1.6 8.0 0.00 0.20 0.20 62 981.6
20260502234920 6 293 1.6 8.0 0.00 0.20 0.20 62 981.7
20260502234842 6 355 1.6 8.0 0.00 0.20 0.20 62 981.7
20260502234738 6 355 1.6 8.0 0.00 0.20 0.20 62 981.7
20260502234636 6 355 1.6 8.0 0.00 0.20 0.20 62 981.7
20260502234538 6 22 1.6 8.0 0.00 0.20 0.20 61 981.7
20260502234415 6 22 1.6 8.0 0.00 0.20 0.20 61 981.7
20260502234335 6 355 1.6 8.0 0.00 0.20 0.20 61 981.7
20260502234233 6 333 1.6 8.0 0.00 0.20 0.20 62 981.7
20260502234132 6 324 1.6 8.0 0.00 0.20 0.20 62 981.7
20260502234031 6 355 1.6 6.4 0.00 0.20 0.20 62 981.7
20260502233928 6 348 1.6 6.4 0.00 0.20 0.20 62 981.7
20260502233909 6 355 1.6 6.4 0.00 0.20 0.20 62 981.7
20260502233829 6 5 1.6 6.4 0.00 0.20 0.20 62 981.7
20260502233727 6 350 1.6 6.4 0.00 0.20 0.20 62 981.6
20260502233624 6 336 1.6 6.4 0.00 0.20 0.20 63 981.6
20260502233526 6 15 1.6 6.4 0.00 0.20 0.20 63 981.7
20260502233422 6 15 1.6 6.4 0.00 0.20 0.20 63 981.7
20260502233403 6 15 1.6 6.4 0.00 0.20 0.20 63 981.6
20260502233324 6 308 1.6 6.4 0.00 0.20 0.20 62 981.6
20260502233220 6 308 1.6 9.7 0.00 0.20 0.20 62 981.5
20260502233115 6 308 3.2 9.7 0.00 0.20 0.20 61 981.6
20260502233016 6 308 3.2 9.7 0.00 0.20 0.20 61 981.6
20260502232914 6 337 3.2 9.7 0.00 0.20 0.20 62 981.6
20260502232857 6 337 3.2 9.7 0.00 0.20 0.20 62 981.6
20260502232814 6 336 3.2 9.7 0.00 0.20 0.20 62 981.6
20260502232715 6 330 3.2 9.7 0.00 0.20 0.20 62 981.6
20260502232610 6 330 3.2 9.7 0.00 0.20 0.20 61 981.6
20260502232510 6 330 3.2 9.7 0.00 0.20 0.20 61 981.6
20260502232411 6 327 3.2 9.7 0.00 0.20 0.20 61 981.6
20260502232352 6 336 3.2 9.7 0.00 0.20 0.20 61 981.6
20260502232311 6 334 1.6 9.7 0.00 0.20 0.20 62 981.6
20260502232209 6 273 1.6 6.4 0.00 0.20 0.20 62 981.6
20260502232105 6 342 1.6 6.4 0.00 0.20 0.20 62 981.7
20260502232051 6 336 1.6 6.4 0.00 0.23 0.20 63 981.6
20260502232004 6 24 1.6 6.4 0.00 0.20 0.20 62 981.6
20260502231947 6 332 1.6 6.4 0.00 0.23 0.20 62 981.5
20260502231940 6 327 1.6 6.4 0.00 0.23 0.20 62 981.5
20260502231804 6 307 1.6 6.4 0.00 0.23 0.20 62 981.6
20260502231717 6 325 1.6 6.4 0.00 0.23 0.20 62 981.6
20260502231558 6 325 1.6 6.4 0.00 0.23 0.20 62 981.5
20260502231501 6 271 1.6 6.4 0.00 0.23 0.20 62 981.5
20260502231447 6 306 1.6 6.4 0.00 0.23 0.20 63 981.6
20260502231258 6 319 1.6 6.4 0.00 0.23 0.20 63 981.5
20260502231156 6 319 1.6 6.4 0.00 0.23 0.20 63 981.5
20260502231103 6 334 1.6 6.4 0.00 0.23 0.20 62 981.5
20260502231056 6 334 1.6 6.4 0.00 0.23 0.20 63 981.5
20260502230955 6 334 1.6 6.4 0.00 0.23 0.20 63 981.5
20260502230941 6 334 1.6 6.4 0.00 0.23 0.20 62 981.5
20260502230753 6 342 1.6 6.4 0.00 0.23 0.20 62 981.5
20260502230650 6 319 1.6 6.4 0.00 0.25 0.20 62 981.5
20260502230550 6 319 1.6 6.4 0.00 0.25 0.20 62 981.5
20260502230448 6 348 1.6 6.4 0.00 0.25 0.20 62 981.5
20260502230348 6 17 1.6 6.4 0.00 0.25 0.20 62 981.5
20260502230327 6 13 1.6 6.4 0.00 0.25 0.20 63 981.6
20260502230247 6 328 1.6 6.4 0.00 0.25 0.20 63 981.6
20260502230145 6 302 1.6 6.4 0.00 0.28 0.20 64 981.6
20260502230043 6 302 3.2 6.4 0.00 0.28 0.20 63 981.6
20260502225942 6 302 3.2 6.4 0.00 0.28 0.20 62 981.6
20260502225843 6 305 3.2 6.4 0.00 0.28 0.20 63 981.6
20260502225822 6 290 3.2 8.0 0.00 0.28 0.20 63 981.6
20260502225740 6 339 3.2 8.0 0.00 0.28 0.20 63 981.6
20260502225639 6 0 3.2 8.0 0.00 0.28 0.20 63 981.6
20260502225539 6 0 3.2 8.0 0.00 0.28 0.20 63 981.7
20260502225436 6 302 3.2 8.0 0.00 0.30 0.20 63 981.6
20260502225337 6 302 3.2 9.7 0.00 0.30 0.20 62 981.6
20260502225315 6 302 3.2 9.7 0.00 0.30 0.20 62 981.7
20260502225235 6 294 3.2 9.7 0.00 0.30 0.20 62 981.7
20260502225133 6 316 3.2 9.7 0.00 0.30 0.20 62 981.6
20260502225029 6 327 3.2 9.7 0.00 0.30 0.20 65 981.7
20260502224928 6 313 3.2 9.7 0.00 0.30 0.20 65 981.6
20260502224828 6 5 3.2 9.7 0.00 0.30 0.20 65 981.6
20260502224809 6 325 3.2 9.7 0.00 0.33 0.20 65 981.6
20260502224727 6 329 3.2 9.7 0.00 0.33 0.20 65 981.6
20260502224627 6 315 3.2 9.7 0.00 0.33 0.20 65 981.5
20260502224522 6 327 1.6 9.7 0.00 0.33 0.20 65 981.6
20260502224420 6 277 1.6 9.7 0.00 0.33 0.20 65 981.6
20260502224321 6 309 1.6 9.7 0.00 0.33 0.20 65 981.5
20260502224303 6 30 3.2 9.7 0.00 0.33 0.20 65 981.5
20260502224221 6 328 3.2 9.7 0.00 0.33 0.20 65 981.6
20260502224122 6 305 3.2 9.7 0.00 0.36 0.20 65 981.5
20260502224017 6 305 3.2 9.7 0.00 0.36 0.20 65 981.5
20260502223914 6 305 3.2 9.7 0.00 0.36 0.20 65 981.6
20260502223815 6 316 3.2 9.7 0.00 0.36 0.20 65 981.5
20260502223758 6 316 3.2 9.7 0.00 0.36 0.20 65 981.5
20260502223714 6 321 3.2 9.7 0.00 0.36 0.20 65 981.5
20260502223616 6 266 3.2 9.7 0.00 0.36 0.20 66 981.5
20260502223510 6 308 3.2 9.7 0.00 0.38 0.20 65 981.5
20260502223411 6 325 3.2 9.7 0.00 0.38 0.20 65 981.5
20260502223312 6 300 1.6 9.7 0.00 0.41 0.20 67 981.5
20260502223252 6 325 1.6 9.7 0.00 0.41 0.20 67 981.5
20260502223211 6 332 3.2 9.7 0.00 0.43 0.20 67 981.5
20260502223109 6 355 3.2 9.7 0.00 0.43 0.20 67 981.5
20260502223016 6 29 3.2 9.7 0.00 0.46 0.20 67 981.5
20260502223009 6 13 3.2 9.7 0.00 0.43 0.20 66 981.5
20260502222907 6 14 3.2 9.7 0.00 0.43 0.20 67 981.5
20260502222853 6 355 3.2 9.7 0.00 0.46 0.20 67 981.5
20260502222705 6 323 3.2 9.7 0.00 0.46 0.20 66 981.5
20260502222604 6 325 3.2 9.7 0.00 0.46 0.20 66 981.5
20260502222459 6 351 3.2 9.7 0.00 0.46 0.20 66 981.5
20260502222356 6 324 3.2 9.7 0.00 0.46 0.20 67 981.5
20260502222240 6 322 3.2 9.7 0.00 0.46 0.20 67 981.5
20260502222156 6 310 3.2 9.7 0.00 0.46 0.20 67 981.5
20260502222057 6 317 3.2 9.7 0.00 0.46 0.20 67 981.5
20260502222001 6 301 3.2 8.0 0.00 0.46 0.20 67 981.5
20260502221950 6 298 1.6 8.0 0.00 0.46 0.20 67 981.5
20260502221855 6 308 3.2 8.0 0.00 0.46 0.20 68 981.5
20260502221842 6 321 3.2 8.0 0.00 0.46 0.20 68 981.5
20260502221650 6 309 3.2 8.0 0.00 0.46 0.20 67 981.5
20260502221551 6 247 1.6 8.0 0.00 0.46 0.20 68 981.5
20260502221452 6 319 1.6 6.4 0.00 0.46 0.20 67 981.5
20260502221348 6 319 1.6 6.4 0.00 0.46 0.20 67 981.5
20260502221226 6 319 1.6 6.4 0.00 0.46 0.20 67 981.5
20260502221148 6 319 1.6 6.4 0.00 0.46 0.20 66 981.5
20260502221045 6 350 1.6 6.4 0.00 0.46 0.20 66 981.5
20260502220939 6 340 1.6 6.4 0.00 0.46 0.20 67 981.5
20260502220839 6 334 1.6 4.8 0.00 0.46 0.20 67 981.5
20260502220738 6 308 1.6 4.8 0.00 0.46 0.20 67 981.5
20260502220721 6 307 1.6 4.8 0.00 0.46 0.20 67 981.6
20260502220639 6 319 0.0 4.8 0.00 0.46 0.20 67 981.6
20260502220539 6 17 1.6 6.4 0.00 0.46 0.20 68 981.6
20260502220438 6 17 1.6 9.7 0.00 0.46 0.20 67 981.6
20260502220336 6 17 1.6 9.7 0.00 0.46 0.20 67 981.6
20260502220237 6 17 1.6 9.7 0.00 0.46 0.20 67 981.6
20260502220215 6 17 1.6 9.7 0.00 0.46 0.20 67 981.5
20260502220134 6 17 1.6 9.7 0.00 0.46 0.20 67 981.5
20260502220033 6 17 1.6 9.7 0.00 0.46 0.20 67 981.5
20260502215933 6 15 1.6 9.7 0.00 0.46 0.20 67 981.5
20260502215835 6 342 1.6 9.7 0.00 0.46 0.20 67 981.6
20260502215730 6 351 1.6 9.7 0.00 0.46 0.20 67 981.5
20260502215710 6 351 1.6 9.7 0.00 0.46 0.20 67 981.6
20260502215630 6 351 1.6 9.7 0.00 0.46 0.20 67 981.6
20260502215527 6 334 1.6 6.4 0.00 0.46 0.20 67 981.5
20260502215422 6 334 1.6 6.4 0.00 0.46 0.20 67 981.5
20260502215323 6 305 1.6 6.4 0.00 0.46 0.20 66 981.5
20260502215222 6 321 1.6 6.4 0.00 0.46 0.20 67 981.5
20260502215203 6 311 1.6 6.4 0.00 0.46 0.20 67 981.5
20260502215123 6 325 1.6 6.4 0.00 0.46 0.20 67 981.5
20260502215021 6 325 1.6 6.4 0.00 0.46 0.20 66 981.5
20260502214920 6 317 1.6 6.4 0.00 0.46 0.20 66 981.5
20260502214818 6 9 1.6 6.4 0.00 0.46 0.20 66 981.4
20260502214719 6 5 1.6 6.4 0.00 0.46 0.20 67 981.4
20260502214658 6 5 1.6 6.4 0.00 0.46 0.20 67 981.4
20260502214618 6 333 1.6 6.4 0.00 0.46 0.20 67 981.5
20260502214516 6 350 1.6 6.4 0.00 0.46 0.20 67 981.5
20260502214408 6 350 1.6 14.5 0.00 0.46 0.20 66 981.5
20260502214309 6 344 3.2 14.5 0.00 0.46 0.20 66 981.5
20260502214209 6 17 3.2 14.5 0.00 0.46 0.20 66 981.4
20260502214152 6 17 3.2 14.5 0.00 0.46 0.20 66 981.4
20260502214110 6 14 3.2 14.5 0.00 0.46 0.20 66 981.5
20260502214008 6 325 3.2 14.5 0.00 0.46 0.20 66 981.5
20260502213904 6 322 3.2 14.5 0.00 0.46 0.20 66 981.5
20260502213804 6 55 3.2 14.5 0.00 0.46 0.20 65 981.4
20260502213703 6 9 3.2 14.5 0.00 0.46 0.20 65 981.4
20260502213646 6 9 3.2 14.5 0.00 0.46 0.20 65 981.4
20260502213603 6 10 3.2 14.5 0.00 0.46 0.20 65 981.4
20260502213503 6 319 4.8 14.5 0.00 0.46 0.20 65 981.5
20260502213401 6 26 4.8 14.5 0.00 0.46 0.20 65 981.4
20260502213356 6 319 4.8 14.5 0.00 0.46 0.20 65 981.5
20260502213303 6 288 4.8 14.5 0.00 0.46 0.20 65 981.5
20260502213248 7 305 4.8 14.5 0.00 0.46 0.20 66 981.5
20260502213056 6 309 4.8 14.5 0.00 0.46 0.20 65 981.5
20260502212957 7 330 4.8 14.5 0.00 0.46 0.20 65 981.4
20260502212854 7 11 4.8 14.5 0.00 0.46 0.20 64 981.5
20260502212754 7 311 4.8 14.5 0.00 0.46 0.20 64 981.5
20260502212655 7 309 4.8 14.5 0.00 0.46 0.20 64 981.4
20260502212633 7 310 4.8 14.5 0.00 0.46 0.20 64 981.4
20260502212553 7 325 4.8 14.5 0.00 0.46 0.20 64 981.4
20260502212451 7 9 4.8 14.5 0.00 0.46 0.20 64 981.4
20260502212350 7 299 4.8 9.7 0.00 0.46 0.20 64 981.4
20260502212248 7 336 4.8 9.7 0.00 0.46 0.20 64 981.4
20260502212149 7 329 4.8 9.7 0.00 0.46 0.20 64 981.4
20260502212127 7 29 4.8 9.7 0.00 0.46 0.20 64 981.4
20260502212047 7 351 4.8 9.7 0.00 0.46 0.20 64 981.4
20260502211945 7 279 4.8 9.7 0.00 0.46 0.20 64 981.3
20260502211840 7 310 3.2 9.7 0.00 0.46 0.20 63 981.3
20260502211740 7 307 3.2 9.7 0.00 0.46 0.20 63 981.3
20260502211640 7 321 3.2 9.7 0.00 0.46 0.20 63 981.3
20260502211620 7 295 3.2 8.0 0.00 0.46 0.20 63 981.3
20260502211540 7 336 3.2 8.0 0.00 0.46 0.20 63 981.3
20260502211439 7 329 3.2 12.9 0.00 0.46 0.20 63 981.3
20260502211341 7 292 1.6 12.9 0.00 0.46 0.20 63 981.2
20260502211336 7 9 3.2 12.9 0.00 0.46 0.20 63 981.3
20260502211237 7 24 1.6 12.9 0.00 0.46 0.20 63 981.3
20260502211222 7 341 1.6 12.9 0.00 0.46 0.20 63 981.3
20260502211036 7 333 1.6 12.9 0.00 0.46 0.20 63 981.2
20260502210933 7 5 1.6 12.9 0.00 0.46 0.20 63 981.2
20260502210826 7 9 1.6 12.9 0.00 0.46 0.20 63 981.2
20260502210726 7 17 1.6 12.9 0.00 0.46 0.20 63 981.2
20260502210628 7 36 1.6 12.9 0.00 0.46 0.20 63 981.2
20260502210609 7 306 1.6 12.9 0.00 0.46 0.20 63 981.2
20260502210526 7 25 1.6 12.9 0.00 0.46 0.20 63 981.2
20260502210427 7 0 1.6 12.9 0.00 0.46 0.20 63 981.2
20260502210327 7 38 1.6 12.9 0.00 0.46 0.20 63 981.2
20260502210256 7 23 1.6 12.9 0.00 0.46 0.20 63 981.2
20260502210224 7 23 1.6 12.9 0.00 0.46 0.20 63 981.2
20260502210124 7 26 1.6 12.9 0.00 0.46 0.20 63 981.2
20260502210104 7 24 1.6 12.9 0.00 0.46 0.20 63 981.2
20260502210024 7 355 1.6 12.9 0.00 0.46 0.20 63 981.2
20260502205920 7 38 1.6 12.9 0.00 0.46 0.20 63 981.2
20260502205814 7 338 3.2 12.9 0.00 0.46 0.20 63 981.2
20260502205715 7 58 3.2 12.9 0.00 0.46 0.20 63 981.2
20260502205616 7 5 3.2 12.9 0.00 0.46 0.20 63 981.2
20260502205557 7 82 3.2 12.9 0.00 0.46 0.20 63 981.2
20260502205545 8 339 3.2 12.9 0.00 0.46 0.20 62 981.2
20260502205515 7 332 3.2 12.9 0.00 0.46 0.20 63 981.2
20260502205435 7 311 3.2 12.9 0.00 0.46 0.20 63 981.2
20260502205310 7 55 3.2 12.9 0.00 0.46 0.20 64 981.2
20260502205213 7 315 3.2 12.9 0.00 0.46 0.20 64 981.2
20260502205159 7 31 3.2 12.9 0.00 0.46 0.20 62 981.2
20260502205011 7 339 3.2 12.9 0.00 0.46 0.20 62 981.2
20260502204909 8 304 3.2 12.9 0.00 0.46 0.20 62 981.2
20260502204808 8 308 1.6 12.9 0.00 0.46 0.20 62 981.2
20260502204707 8 37 1.6 12.9 0.00 0.46 0.20 63 981.2
20260502204605 8 341 1.6 12.9 0.00 0.46 0.20 64 981.2
20260502204545 8 329 1.6 6.4 0.00 0.46 0.20 64 981.2
20260502204505 8 305 1.6 9.7 0.00 0.46 0.20 64 981.2
20260502204403 8 241 1.6 9.7 0.00 0.46 0.20 64 981.2
20260502204304 8 12 1.6 9.7 0.00 0.46 0.20 64 981.3
20260502204257 8 338 1.6 9.7 0.00 0.46 0.20 65 981.2
20260502204200 8 332 1.6 9.7 0.00 0.46 0.20 64 981.2
20260502204145 8 12 1.6 9.7 0.00 0.46 0.20 64 981.3
20260502203957 8 12 1.6 9.7 0.00 0.46 0.20 64 981.2
20260502203856 8 10 3.2 9.7 0.00 0.46 0.20 64 981.3
20260502203803 8 0 3.2 9.7 0.00 0.46 0.20 64 981.3
20260502203756 8 10 3.2 9.7 0.00 0.46 0.20 63 981.3
20260502203656 8 5 3.2 9.7 0.00 0.46 0.20 63 981.3
20260502203640 8 333 3.2 9.7 0.00 0.46 0.20 63 981.3
20260502203453 8 340 3.2 8.0 0.00 0.46 0.20 64 981.3
20260502203350 8 5 3.2 8.0 0.00 0.46 0.20 64 981.3
20260502203253 8 27 3.2 8.0 0.00 0.46 0.20 63 981.2
20260502203246 8 0 3.2 8.0 0.00 0.46 0.20 64 981.3
20260502203150 8 26 3.2 8.0 0.00 0.46 0.20 64 981.3
20260502203134 8 5 3.2 8.0 0.00 0.46 0.20 63 981.2
20260502202945 8 355 3.2 8.0 0.00 0.46 0.20 64 981.2
20260502202844 8 304 1.6 8.0 0.00 0.46 0.20 64 981.3
20260502202743 8 5 1.6 8.0 0.00 0.46 0.20 64 981.3
20260502202642 8 22 1.6 8.0 0.00 0.46 0.20 64 981.2
20260502202543 8 28 1.6 8.0 0.00 0.46 0.20 65 981.3
20260502202521 8 17 1.6 6.4 0.00 0.46 0.20 65 981.3
20260502202442 8 26 1.6 6.4 0.00 0.46 0.20 66 981.3
20260502202339 7 346 1.6 6.4 0.00 0.48 0.20 66 981.3
20260502202239 7 346 1.6 6.4 0.00 0.48 0.20 65 981.2
20260502202135 7 84 3.2 16.1 0.00 0.48 0.20 65 981.3
20260502202018 7 49 3.2 16.1 0.00 0.48 0.20 66 981.3
20260502201934 7 49 3.2 16.1 0.00 0.48 0.20 66 981.3
20260502201833 7 69 3.2 16.1 0.00 0.48 0.20 66 981.3
20260502201729 7 12 4.8 16.1 0.00 0.48 0.20 67 981.3
20260502201625 7 38 4.8 16.1 0.00 0.48 0.20 67 981.3
20260502201518 7 34 4.8 16.1 0.00 0.48 0.20 67 981.4
20260502201426 7 17 4.8 16.1 0.00 0.48 0.20 67 981.4
20260502201327 7 0 4.8 17.7 0.00 0.48 0.20 66 981.3
20260502201240 7 30 4.8 17.7 0.00 0.48 0.20 67 981.4
20260502201221 7 332 4.8 17.7 0.00 0.48 0.20 68 981.3
20260502201139 7 319 4.8 17.7 0.00 0.48 0.20 68 981.3
20260502201125 7 30 4.8 17.7 0.00 0.48 0.20 67 981.4
20260502200920 7 292 4.8 17.7 0.00 0.48 0.20 67 981.4
20260502200821 7 355 3.2 17.7 0.00 0.48 0.20 68 981.4
20260502200716 7 349 3.2 17.7 0.00 0.48 0.20 67 981.4
20260502200615 7 338 3.2 17.7 0.00 0.48 0.20 67 981.4
20260502200520 7 323 3.2 17.7 0.00 0.48 0.20 67 981.4
20260502200515 7 329 3.2 17.7 0.00 0.48 0.20 67 981.4